Weather History for KOSC - December, 2012

Change the Weather History Date:

Thursday, December 13, 2012

  Actual Average Record
Temperature  
Mean Temperature 35 °F -  
Max Temperature 40 °F 34 °F 46 °F (1998)
Min Temperature 30 °F 21 °F 1 °F (2000)
Degree Days  
Heating Degree Days 30    
Moisture  
Dew Point 26 °F    
Average Humidity 69    
Maximum Humidity 79    
Minimum Humidity 58    
Precipitation  
Precipitation 0.00 in - - ()
Sea Level Pressure  
Sea Level Pressure 30.17 in    
Wind  
Wind Speed 12 mph (SSW)    
Max Wind Speed 16 mph    
Max Gust Speed 24 mph    
Visibility 10 miles    
Events      
Averages and records for this station are not official NWS values.
T = Trace of Precipitation, MM = Missing Value Source: NWS Daily Summary

Daily Weather History Graph

Daily Weather History Graph

Search for Another Location

Airport or City:

Trip Planner

Search our weather history database for the weather conditions in past years. The results will help you decide how hot, cold, wet, or windy it might be!

Date:

Astronomy

Dec. 13, 2012 Rise Set
Actual Time 8:01 AM EST 4:54 PM EST
Civil Twilight 7:28 AM EST 5:27 PM EST
Nautical Twilight 6:51 AM EST 6:04 PM EST
Astronomical Twilight 6:16 AM EST 6:39 PM EST
Moon 8:08 AM EST (12/13) 5:36 PM EST (12/13)
Length of Visible Light 9h 59m
Length of Day
8h 52m
New Moon, 0% of the Moon is Illuminated
Dec 13
New Moon
Dec 20
First Quarter
Dec 28
Full
Jan 4
Last Quarter
Jan 11
New

Hourly Weather History & Observations

Time (EST) Temp. Windchill Dew Point Humidity Pressure Visibility Wind Dir Wind Speed Gust Speed Precip Events Conditions
12:14 AM 34.5 °F 25.3 °F 25.7 °F 70% 30.27 in 10.0 mi SSW 13.8 mph 19.6 mph N/A   Clear
12:34 AM 34.5 °F 25.7 °F 25.7 °F 70% 30.26 in 10.0 mi SSW 12.7 mph 19.6 mph N/A   Scattered Clouds
12:54 AM 34.2 °F 25.2 °F 25.7 °F 71% 30.26 in 10.0 mi SSW 12.7 mph 18.4 mph N/A   Scattered Clouds
1:14 AM 34.3 °F 25.0 °F 25.5 °F 70% 30.26 in 10.0 mi SSW 13.8 mph 20.7 mph N/A   Scattered Clouds
1:34 AM 33.8 °F 24.8 °F 25.7 °F 72% 30.26 in 10.0 mi SSW 12.7 mph - N/A   Scattered Clouds
1:54 AM 33.8 °F 24.3 °F 25.5 °F 72% 30.27 in 10.0 mi SW 13.8 mph 19.6 mph N/A   Mostly Cloudy
2:14 AM 33.8 °F 25.3 °F 25.3 °F 71% 30.27 in 10.0 mi SSW 11.5 mph - N/A   Overcast
2:33 AM 33.8 °F 24.3 °F 25.3 °F 71% 30.27 in 10.0 mi SSW 13.8 mph - N/A   Mostly Cloudy
2:54 AM 33.6 °F 25.0 °F 25.5 °F 72% 30.26 in 10.0 mi SSW 11.5 mph - N/A   Mostly Cloudy
3:14 AM 33.3 °F 24.1 °F 26.1 °F 75% 30.27 in 10.0 mi SSW 12.7 mph 17.3 mph N/A   Scattered Clouds
3:33 AM 33.1 °F 24.9 °F 26.4 °F 77% 30.27 in 10.0 mi SW 10.4 mph - N/A   Scattered Clouds
3:54 AM 33.3 °F 24.1 °F 26.1 °F 75% 30.26 in 10.0 mi SSW 12.7 mph - N/A   Scattered Clouds
4:14 AM 32.9 °F 24.1 °F 26.1 °F 76% 30.25 in 10.0 mi SW 11.5 mph - N/A   Clear
4:33 AM 33.1 °F 23.9 °F 25.7 °F 74% 30.25 in 10.0 mi SSW 12.7 mph 18.4 mph N/A   Clear
4:54 AM 32.5 °F 22.3 °F 25.7 °F 76% 30.25 in 10.0 mi SSW 15.0 mph - N/A   Clear
5:14 AM 32.0 °F 22.5 °F 25.5 °F 77% 30.25 in 10.0 mi SW 12.7 mph - N/A   Clear
5:33 AM 32.0 °F 22.5 °F 25.5 °F 77% 30.25 in 10.0 mi SW 12.7 mph - N/A   Clear
5:54 AM 32.0 °F 23.0 °F 25.3 °F 76% 30.25 in 10.0 mi SSW 11.5 mph - N/A   Clear
6:14 AM 31.8 °F 23.3 °F 25.3 °F 77% 30.24 in 10.0 mi SSW 10.4 mph - N/A   Clear
6:33 AM 31.1 °F 21.4 °F 24.8 °F 77% 30.24 in 10.0 mi SSW 12.7 mph - N/A   Clear
6:54 AM 30.7 °F 21.4 °F 24.8 °F 79% 30.24 in 10.0 mi SSW 11.5 mph - N/A   Clear
7:14 AM 30.7 °F 21.4 °F 24.8 °F 79% 30.23 in 10.0 mi SSW 11.5 mph 16.1 mph N/A   Clear
7:33 AM 31.1 °F 21.9 °F 25.2 °F 79% 30.23 in 10.0 mi SSW 11.5 mph - N/A   Clear
7:54 AM 31.5 °F 22.3 °F 25.3 °F 78% 30.23 in 10.0 mi SSW 11.5 mph - N/A   Clear
8:14 AM 32.0 °F 22.5 °F 25.5 °F 77% 30.23 in 10.0 mi SSW 12.7 mph 16.1 mph N/A   Clear
8:34 AM 32.0 °F 23.0 °F 25.7 °F 78% 30.23 in 10.0 mi SSW 11.5 mph - N/A   Clear
8:54 AM 32.2 °F 23.2 °F 25.5 °F 76% 30.23 in 10.0 mi SSW 11.5 mph - N/A   Clear
9:14 AM 32.4 °F 24.0 °F 25.7 °F 76% 30.23 in 10.0 mi SSW 10.4 mph 18.4 mph N/A   Clear
9:34 AM 32.9 °F 23.7 °F 25.7 °F 75% 30.23 in 10.0 mi SSW 12.7 mph 17.3 mph N/A   Clear
9:54 AM 32.9 °F 24.1 °F 25.5 °F 74% 30.22 in 10.0 mi SSW 11.5 mph - N/A   Clear
10:14 AM 33.4 °F 23.9 °F 25.7 °F 73% 30.22 in 10.0 mi SSW 13.8 mph - N/A   Clear
10:34 AM 34.2 °F 24.8 °F 26.2 °F 73% 30.21 in 10.0 mi SSW 13.8 mph 18.4 mph N/A   Clear
10:54 AM 34.9 °F 26.2 °F 26.4 °F 71% 30.20 in 10.0 mi SSW 12.7 mph 24.2 mph N/A   Clear
11:14 AM 35.6 °F 26.6 °F 26.6 °F 70% 30.19 in 10.0 mi SSW 13.8 mph - N/A   Clear
11:34 AM 37.4 °F 29.3 °F 26.4 °F 65% 30.19 in 10.0 mi SSW 12.7 mph 19.6 mph N/A   Clear
11:54 AM 38.3 °F 29.3 °F 26.6 °F 63% 30.18 in 10.0 mi SSW 16.1 mph 21.9 mph N/A   Clear
12:13 PM 38.1 °F 29.1 °F 26.4 °F 63% 30.17 in 10.0 mi SSW 16.1 mph 19.6 mph N/A   Clear
12:34 PM 37.8 °F 29.4 °F 26.6 °F 64% 30.16 in 10.0 mi SSW 13.8 mph 19.6 mph N/A   Clear
12:54 PM 38.7 °F 30.1 °F 26.2 °F 61% 30.15 in 10.0 mi SSW 15.0 mph 24.2 mph N/A   Clear
1:13 PM 39.2 °F 32.0 °F 26.6 °F 61% 30.14 in 10.0 mi SSW 11.5 mph - N/A   Clear
1:34 PM 39.2 °F 32.5 °F 27.0 °F 62% 30.13 in 10.0 mi SSW 10.4 mph 19.6 mph N/A   Clear
1:54 PM 39.2 °F 31.6 °F 27.1 °F 62% 30.13 in 10.0 mi SSW 12.7 mph 19.6 mph N/A   Clear
2:13 PM 39.6 °F 33.0 °F 27.1 °F 61% 30.12 in 10.0 mi SSW 10.4 mph - N/A   Clear
2:34 PM 40.5 °F 33.2 °F 26.8 °F 58% 30.11 in 10.0 mi SSW 12.7 mph 20.7 mph N/A   Clear
2:54 PM 40.1 °F 32.0 °F 27.0 °F 59% 30.11 in 10.0 mi SSW 15.0 mph - N/A   Clear
3:13 PM 39.7 °F 33.2 °F 26.6 °F 59% 30.10 in 10.0 mi SSW 10.4 mph - N/A   Clear
3:34 PM 39.4 °F 32.7 °F 26.8 °F 61% 30.10 in 10.0 mi South 10.4 mph 17.3 mph N/A   Clear
3:54 PM 39.2 °F 32.5 °F 27.0 °F 62% 30.09 in 10.0 mi South 10.4 mph - N/A   Clear
4:13 PM 39.2 °F 32.5 °F 27.1 °F 62% 30.09 in 10.0 mi SSW 10.4 mph - N/A   Clear
4:34 PM 39.0 °F 32.3 °F 26.8 °F 62% 30.09 in 10.0 mi SSW 10.4 mph - N/A   Clear
4:54 PM 38.7 °F 31.8 °F 27.1 °F 63% 30.09 in 10.0 mi South 10.4 mph - N/A   Clear
5:13 PM 38.3 °F 31.4 °F 27.7 °F 66% 30.07 in 10.0 mi South 10.4 mph - N/A   Clear
5:34 PM 38.3 °F 31.4 °F 27.9 °F 66% 30.06 in 10.0 mi South 10.4 mph - N/A   Clear
6:14 PM 38.8 °F 31.6 °F 27.5 °F 64% 30.06 in 10.0 mi SSW 11.5 mph 17.3 mph N/A   Clear
6:34 PM 39.4 °F 31.4 °F 26.8 °F 61% 30.05 in 10.0 mi SSW 13.8 mph 19.6 mph N/A   Clear
7:14 PM 39.7 °F 32.3 °F 28.0 °F 63% 30.04 in 10.0 mi SSW 12.7 mph 20.7 mph N/A   Clear
7:34 PM 39.7 °F 31.5 °F 27.1 °F 61% 30.05 in 10.0 mi SSW 15.0 mph - N/A   Clear
7:53 PM 39.4 °F 31.4 °F 26.6 °F 60% 30.05 in 10.0 mi SSW 13.8 mph 20.7 mph N/A   Clear
8:14 PM 38.5 °F 30.7 °F 26.8 °F 63% 30.05 in 10.0 mi SSW 12.7 mph - N/A   Clear
8:34 PM 37.4 °F 30.8 °F 26.1 °F 64% 30.06 in 10.0 mi SW 9.2 mph - N/A   Clear
8:53 PM 37.2 °F 30.0 °F 25.3 °F 62% 30.06 in 10.0 mi SSW 10.4 mph - N/A   Clear
9:14 PM 36.7 °F 29.9 °F 25.3 °F 64% 30.06 in 10.0 mi SSW 9.2 mph - N/A   Clear
9:34 PM 35.8 °F 30.1 °F 25.2 °F 65% 30.06 in 10.0 mi SSW 6.9 mph - N/A   Clear
9:53 PM 35.8 °F 30.9 °F 25.2 °F 65% 30.07 in 10.0 mi SSW 5.8 mph - N/A   Clear
10:14 PM 34.5 °F 30.4 °F 25.2 °F 69% 30.07 in 10.0 mi SSW 4.6 mph - N/A   Clear
10:34 PM 32.7 °F 28.3 °F 24.8 °F 73% 30.07 in 10.0 mi SSW 4.6 mph - N/A   Clear
10:53 PM 32.0 °F 28.7 °F 24.6 °F 74% 30.07 in 10.0 mi SSW 3.5 mph - N/A   Clear
11:14 PM 31.6 °F 27.0 °F 24.8 °F 76% 30.07 in 10.0 mi SW 4.6 mph - N/A   Scattered Clouds
11:34 PM 32.9 °F 28.5 °F 25.7 °F 75% 30.07 in 10.0 mi SSW 4.6 mph - N/A   Overcast
11:53 PM 32.0 °F 25.6 °F 25.2 °F 76% 30.07 in 10.0 mi SSW 6.9 mph - N/A   Overcast